カタログに戻る

TITAN 3C TRANSTAGE DEB

運用中LEO
NORAD 3494·DEBRIS·🇺🇸 United States

打ち上げ Oct 15, 1965 から Cape Canaveral Space Force Station

Loading…

次のパス (今後24時間)

TLE

最新Source: Space-Track

元期: Sep 14, 2026, 12:43 UTC

1 03494U 65082QQ  26257.53045988  .00000443  00000-0  77609-4 0  9999
2 03494  31.8919 321.0696 0026996 214.0401 145.8508 14.62142731218535

AllMySatでTITAN 3C TRANSTAGE DEBをリアルタイム追跡

Download on the App Store